Weather History for KMCC - October, 2013

Change the Weather History Date:

Tuesday, October 29, 2013

  Actual Average (KSAC) Record (KSAC)
Temperature  
Mean Temperature 55 °F -  
Max Temperature 62 °F 72 °F 82 °F (1965)
Min Temperature 46 °F 47 °F 36 °F (1971)
Degree Days  
Heating Degree Days 10    
Cooling Degree Days 0    
Growing Degree Days 5 (Base 50)    
Moisture  
Dew Point 43 °F    
Average Humidity 62    
Maximum Humidity 81    
Minimum Humidity 45    
Precipitation  
Precipitation 0.00 in 0.05 in 0.83 in (1964)
Month to date precipitation 0.85  
Year to date precipitation 13.09  
Since 1 July precipitation 1.19  
Sea Level Pressure  
Sea Level Pressure 29.98 in    
Wind  
Wind Speed 6 mph (SSE)    
Max Wind Speed 9 mph    
Max Gust Speed -    
Visibility 8 miles    
Events      
T = Trace of Precipitation, MM = Missing Value Source: NWS Daily Summary

Daily Weather History Graph

Daily Weather History Graph

Search for Another Location

Airport or City:

Trip Planner

Search our weather history database for the weather conditions in past years. The results will help you decide how hot, cold, wet, or windy it might be!

Date:

Astronomy

Oct. 29, 2013 Rise Set
Actual Time 7:29 AM PDT 6:08 PM PDT
Civil Twilight 7:02 AM PDT 6:35 PM PDT
Nautical Twilight 6:30 AM PDT 7:07 PM PDT
Astronomical Twilight 5:59 AM PDT 7:37 PM PDT
Moon 2:27 AM PDT (10/29) 3:22 PM PDT (10/29)
Length of Visible Light 11h 33m
Length of Day
10h 38m
Waning Crescent, 24% of the Moon is Illuminated
Oct 29
Waning Crescent
Nov 3
New
Nov 9
First Quarter
Nov 17
Full
Nov 25
Last Quarter

Hourly Weather History & Observations

Time (PDT) Temp. Windchill Dew Point Humidity Pressure Visibility Wind Dir Wind Speed Gust Speed Precip Events Conditions
12:10 AM 53.6 °F - 42.8 °F 67% 29.87 in 6.0 mi SE 5.8 mph - N/A   Haze
12:30 AM 53.6 °F - 42.8 °F 67% 29.88 in 9.0 mi SE 4.6 mph - N/A   Mostly Cloudy
12:50 AM 53.6 °F - 42.8 °F 67% 29.89 in 10.0 mi ESE 5.8 mph - N/A   Mostly Cloudy
1:10 AM 53.6 °F - 44.6 °F 72% 29.89 in 10.0 mi ESE 6.9 mph - N/A   Mostly Cloudy
1:30 AM 53.6 °F - 44.6 °F 72% 29.90 in 9.0 mi SE 6.9 mph - N/A   Mostly Cloudy
1:50 AM 53.6 °F - 44.6 °F 72% 29.89 in 6.0 mi SE 8.1 mph - N/A   Haze
2:10 AM 53.6 °F - 44.6 °F 72% 29.90 in 6.0 mi SE 5.8 mph - N/A   Haze
2:30 AM 53.6 °F - 44.6 °F 72% 29.90 in 5.0 mi SE 6.9 mph - N/A   Haze
2:50 AM 53.6 °F - 44.6 °F 72% 29.90 in 5.0 mi SE 6.9 mph - N/A   Haze
3:10 AM 53.6 °F - 44.6 °F 72% 29.91 in 7.0 mi SE 9.2 mph - N/A   Mostly Cloudy
3:30 AM 53.6 °F - 44.6 °F 72% 29.91 in 6.0 mi SE 6.9 mph - N/A   Haze
3:50 AM 53.6 °F - 44.6 °F 72% 29.91 in 5.0 mi SSE 6.9 mph - N/A   Haze
4:10 AM 53.6 °F - 44.6 °F 72% 29.91 in 7.0 mi South 5.8 mph - N/A   Mostly Cloudy
4:30 AM 53.6 °F - 42.8 °F 67% 29.92 in 5.0 mi SE 4.6 mph - N/A   Haze
4:50 AM 53.6 °F - 42.8 °F 67% 29.92 in 5.0 mi SSE 6.9 mph - N/A   Haze
5:10 AM 53.6 °F - 42.8 °F 67% 29.93 in 5.0 mi SSE 4.6 mph - N/A   Haze
5:30 AM 53.6 °F - 42.8 °F 67% 29.94 in 5.0 mi SSE 4.6 mph - N/A   Haze
5:50 AM 53.6 °F - 42.8 °F 67% 29.94 in 5.0 mi SSE 5.8 mph - N/A   Haze
6:10 AM 53.6 °F - 42.8 °F 67% 29.94 in 5.0 mi SSE 6.9 mph - N/A   Haze
6:30 AM 53.6 °F - 42.8 °F 67% 29.95 in 5.0 mi SSE 4.6 mph - N/A   Haze
6:50 AM 53.6 °F - 42.8 °F 67% 29.95 in 7.0 mi South 4.6 mph - N/A   Overcast
7:10 AM 53.6 °F - 42.8 °F 67% 29.96 in 7.0 mi South 5.8 mph - N/A   Mostly Cloudy
7:30 AM 53.6 °F - 42.8 °F 67% 29.96 in 5.0 mi SSE 5.8 mph - N/A   Haze
7:50 AM 53.6 °F - 44.6 °F 72% 29.96 in 5.0 mi SSE 8.1 mph - N/A   Haze
8:10 AM 53.6 °F - 44.6 °F 72% 29.98 in 5.0 mi SE 6.9 mph - N/A   Haze
8:30 AM 53.6 °F - 44.6 °F 72% 29.98 in 5.0 mi SSE 9.2 mph - N/A   Haze
8:50 AM 53.6 °F - 44.6 °F 72% 29.99 in 5.0 mi SSE 6.9 mph - N/A   Haze
9:10 AM 55.4 °F - 44.6 °F 67% 29.99 in 5.0 mi SSE 6.9 mph - N/A   Haze
9:30 AM 55.4 °F - 44.6 °F 67% 30.00 in 5.0 mi SE 6.9 mph - N/A   Haze
9:50 AM 57.2 °F - 44.6 °F 63% 30.00 in 6.0 mi SSE 5.8 mph - N/A   Haze
10:10 AM 57.2 °F - 44.6 °F 63% 30.00 in 7.0 mi South 6.9 mph - N/A   Partly Cloudy
10:30 AM 59.0 °F - 44.6 °F 59% 30.00 in 7.0 mi South 6.9 mph - N/A   Clear
10:50 AM 59.0 °F - 44.6 °F 59% 30.00 in 6.0 mi South 6.9 mph - N/A   Haze
11:10 AM 59.0 °F - 44.6 °F 59% 30.00 in 6.0 mi South 8.1 mph - N/A   Haze
11:30 AM 60.8 °F - 44.6 °F 55% 30.00 in 7.0 mi South 6.9 mph - N/A   Partly Cloudy
11:50 AM 60.8 °F - 44.6 °F 55% 30.00 in 7.0 mi SSE 4.6 mph - N/A   Scattered Clouds
12:10 PM 59.0 °F - 44.6 °F 59% 30.00 in 8.0 mi SW 5.8 mph - N/A   Mostly Cloudy
12:30 PM 59.0 °F - 44.6 °F 59% 30.01 in 8.0 mi SW 4.6 mph - N/A   Overcast
12:50 PM 59.0 °F - 42.8 °F 55% 30.00 in 9.0 mi SW 3.5 mph - N/A   Mostly Cloudy
1:10 PM 59.0 °F - 42.8 °F 55% 30.00 in 9.0 mi SW 3.5 mph - N/A   Mostly Cloudy
1:30 PM 62.6 °F - 42.8 °F 48% 29.99 in 9.0 mi WSW 6.9 mph - N/A   Mostly Cloudy
1:50 PM 60.8 °F - 42.8 °F 52% 29.99 in 9.0 mi WSW 4.6 mph - N/A   Overcast
2:10 PM 62.6 °F - 41.0 °F 45% 29.99 in 9.0 mi SW 4.6 mph - N/A   Overcast
2:30 PM 60.8 °F - 41.0 °F 48% 29.99 in 9.0 mi Calm Calm - N/A   Mostly Cloudy
2:50 PM 62.6 °F - 41.0 °F 45% 29.99 in 9.0 mi West 4.6 mph - N/A   Partly Cloudy
3:10 PM 62.6 °F - 41.0 °F 45% 29.99 in 10.0 mi WSW 5.8 mph - N/A   Partly Cloudy
3:30 PM 62.6 °F - 41.0 °F 45% 29.99 in 10.0 mi South 3.5 mph - N/A   Partly Cloudy
3:50 PM 62.6 °F - 41.0 °F 45% 29.99 in 10.0 mi Calm Calm - N/A   Partly Cloudy
4:10 PM 62.6 °F - 41.0 °F 45% 29.99 in 10.0 mi West 4.6 mph - N/A   Partly Cloudy
4:30 PM 62.6 °F - 41.0 °F 45% 29.99 in 9.0 mi NW 4.6 mph - N/A   Mostly Cloudy
4:50 PM 62.6 °F - 41.0 °F 45% 29.99 in 10.0 mi Calm Calm - N/A   Mostly Cloudy
5:10 PM 62.6 °F - 41.0 °F 45% 29.99 in 9.0 mi NW 4.6 mph - N/A   Scattered Clouds
5:30 PM 62.6 °F - 41.0 °F 45% 29.99 in 10.0 mi WNW 4.6 mph - N/A   Mostly Cloudy
5:50 PM 62.6 °F - 41.0 °F 45% 30.00 in 10.0 mi NW 3.5 mph - N/A   Overcast
6:10 PM 60.8 °F - 39.2 °F 45% 30.00 in 10.0 mi North 3.5 mph - N/A   Mostly Cloudy
6:30 PM 59.0 °F - 41.0 °F 51% 30.00 in 10.0 mi North 5.8 mph - N/A   Overcast
6:50 PM 57.2 °F - 41.0 °F 55% 30.01 in 10.0 mi North 6.9 mph - N/A   Scattered Clouds
7:10 PM 57.2 °F - 41.0 °F 55% 30.02 in 9.0 mi North 5.8 mph - N/A   Partly Cloudy
7:30 PM 55.4 °F - 41.0 °F 58% 30.03 in 9.0 mi North 6.9 mph - N/A   Mostly Cloudy
7:50 PM 55.4 °F - 41.0 °F 58% 30.03 in 9.0 mi North 5.8 mph - N/A   Scattered Clouds
8:10 PM 55.4 °F - 41.0 °F 58% 30.03 in 9.0 mi North 4.6 mph - N/A   Clear
8:30 PM 55.4 °F - 41.0 °F 58% 30.03 in 9.0 mi NNW 4.6 mph - N/A   Clear
8:50 PM 53.6 °F - 39.2 °F 58% 30.03 in 9.0 mi NNW 5.8 mph - N/A   Clear
9:10 PM 51.8 °F - 41.0 °F 67% 30.03 in 8.0 mi North 6.9 mph - N/A   Clear
9:30 PM 51.8 °F - 41.0 °F 67% 30.04 in 9.0 mi North 5.8 mph - N/A   Clear
9:50 PM 51.8 °F - 41.0 °F 67% 30.04 in 9.0 mi North 3.5 mph - N/A   Clear
10:10 PM 51.8 °F - 42.8 °F 71% 30.05 in 8.0 mi North 3.5 mph - N/A   Clear
10:30 PM 50.0 °F - 41.0 °F 71% 30.05 in 9.0 mi Calm Calm - N/A   Clear
10:50 PM 50.0 °F - 41.0 °F 71% 30.05 in 9.0 mi Calm Calm - N/A   Clear
11:10 PM 50.0 °F - 41.0 °F 71% 30.05 in 9.0 mi Calm Calm - N/A   Clear
11:30 PM 48.2 °F - 41.0 °F 76% 30.05 in 9.0 mi North 3.5 mph - N/A   Clear
11:50 PM 46.4 °F 45.2 °F 41.0 °F 81% 30.06 in 8.0 mi NW 3.5 mph - N/A   Clear